TimeEST,TemperatureF,Dew PointF,Humidity,Sea Level PressureIn,VisibilityMPH,Wind Direction,Wind SpeedMPH,Gust SpeedMPH,PrecipitationIn,Events,Conditions,WindDirDegrees,DateUTC
12:53 AM,52.0,43.0,71,30.02,10.0,South,9.2,-,N/A,,Clear,170,2011-11-14 05:53:00
1:53 AM,51.1,43.0,74,30.01,10.0,South,3.5,-,N/A,,Clear,170,2011-11-14 06:53:00
2:53 AM,52.0,44.1,74,30.01,10.0,South,8.1,-,N/A,,Clear,190,2011-11-14 07:53:00
3:53 AM,53.1,45.0,74,29.99,10.0,South,11.5,-,N/A,,Clear,190,2011-11-14 08:53:00
4:53 AM,51.8,44.6,76,30.00,10.0,South,9.2,-,N/A,,Clear,190,2011-11-14 09:53:00
5:53 AM,52.0,45.0,77,30.00,10.0,South,9.2,-,N/A,,Clear,190,2011-11-14 10:53:00
6:53 AM,51.8,46.4,82,30.01,10.0,South,10.4,-,N/A,,Clear,180,2011-11-14 11:53:00
7:53 AM,52.0,46.0,80,30.00,10.0,South,8.1,-,N/A,,Clear,180,2011-11-14 12:53:00
8:53 AM,54.0,46.9,77,30.00,10.0,South,6.9,-,N/A,,Clear,180,2011-11-14 13:53:00
9:53 AM,59.0,48.9,69,30.00,10.0,SSW,10.4,-,N/A,,Clear,200,2011-11-14 14:53:00
10:53 AM,63.0,48.9,60,29.98,10.0,South,11.5,-,N/A,,Clear,170,2011-11-14 15:53:00
11:53 AM,66.9,50.0,54,29.94,10.0,South,11.5,-,N/A,,Clear,190,2011-11-14 16:53:00
12:53 PM,71.1,50.0,47,29.90,10.0,South,12.7,20.7,N/A,,Clear,180,2011-11-14 17:53:00
1:53 PM,73.0,50.0,44,29.88,10.0,South,12.7,17.3,N/A,,Clear,190,2011-11-14 18:53:00
2:53 PM,73.0,50.0,44,29.86,10.0,SSW,12.7,-,N/A,,Clear,200,2011-11-14 19:53:00
3:53 PM,72.0,50.0,46,29.87,10.0,SSW,11.5,20.7,N/A,,Clear,200,2011-11-14 20:53:00
4:53 PM,70.0,50.0,49,29.87,10.0,SW,16.1,23.0,N/A,,Clear,220,2011-11-14 21:53:00
5:53 PM,69.1,50.0,51,29.86,10.0,SSW,16.1,23.0,N/A,,Clear,200,2011-11-14 22:53:00
6:53 PM,68.0,50.0,52,29.86,10.0,SW,13.8,20.7,N/A,,Clear,220,2011-11-14 23:53:00
7:53 PM,66.2,51.8,60,29.86,10.0,SW,13.8,20.7,N/A,,Clear,230,2011-11-15 00:53:00
8:53 PM,66.0,52.0,60,29.84,10.0,SSW,16.1,23.0,N/A,,Clear,210,2011-11-15 01:53:00
9:53 PM,64.9,52.0,63,29.85,10.0,South,9.2,17.3,N/A,,Clear,190,2011-11-15 02:53:00
10:53 PM,63.0,52.0,67,29.86,10.0,SSW,8.1,-,N/A,,Clear,200,2011-11-15 03:53:00
11:53 PM,64.0,52.0,65,29.86,10.0,SSW,10.4,-,N/A,,Clear,200,2011-11-15 04:53:00